Location: Carrer del Canonge
(41.4901°N, 2.2931°E)
Time: 03:39:42
(UTC+00:00)

Resurs 1-3 - Pass Details

Date: 18 September 2020
Orbit: 630 x 632 km, 97.9° (Epoch: 25 October)

Event Time Altitude Azimuth Distance (km) Brightness Sun altitude
Exits shadow 20:01:13 65° 39° (NE) 700 3.6 -23.8°
Drops below altitude 10° 20:05:13 10° 352° (N) 2,022 6.6 -24.5°
Sets 20:07:25 0° 350° (N) 2,934 7.5 -24.8°
